Oakes, ND

1:23 PM CDT on April 28, 2017 (GMT -0500)
Oakes

Weather History for K2D5 - February, 2013

Change the Weather History Date:

Wednesday, February 13, 2013

  Actual Average (KP67) Record (KP67)
Temperature  
Mean Temperature 21 °F -  
Max Temperature 32 °F 25 °F 30 °F (1997)
Min Temperature 10 °F 8 °F 3 °F (1997)
Degree Days  
Heating Degree Days 44    
Moisture  
Dew Point 24 °F    
Average Humidity 98    
Maximum Humidity 100    
Minimum Humidity 87    
Precipitation  
Precipitation 0.59 in - - ()
Sea Level Pressure  
Sea Level Pressure 29.66 in    
Wind  
Wind Speed 8 mph (WSW)    
Max Wind Speed 14 mph    
Max Gust Speed 18 mph    
Visibility 8 miles    
Events Rain , Snow    
Averages and records for this station are not official NWS values.
T = Trace of Precipitation, MM = Missing Value Source: NWS Daily Summary

Daily Weather History Graph

Daily Weather History Graph

Search for Another Location

Airport or City:

Trip Planner

Search our weather history database for the weather conditions in past years. The results will help you decide how hot, cold, wet, or windy it might be!

Date:

Astronomy

Feb. 13, 2013 Rise Set
Actual Time 7:37 AM CST 5:55 PM CST
Civil Twilight 7:06 AM CST 6:26 PM CST
Nautical Twilight 6:31 AM CST 7:01 PM CST
Astronomical Twilight 5:57 AM CST 7:36 PM CST
Moon 8:52 AM CST (2/13) 10:17 PM CST (2/13)
Length of Visible Light 11h 19m
Length of Day
10h 17m
Waxing Crescent, 14% of the Moon is Illuminated
Feb 13
Waxing Crescent
Feb 17
First Quarter
Feb 25
Full
Mar 4
Last Quarter
Mar 11
New

Hourly Weather History & Observations

Time (CST) Temp. Windchill Dew Point Humidity Pressure Visibility Wind Dir Wind Speed Gust Speed Precip Events Conditions
12:15 AM 28.4 °F 20.4 °F 26.6 °F 93% 29.78 in 10.0 mi West 8.1 mph - N/A   Unknown
12:35 AM 28.4 °F 21.2 °F 26.6 °F 93% 29.77 in 10.0 mi West 6.9 mph - N/A   Unknown
12:55 AM 30.2 °F 22.6 °F 28.4 °F 93% 29.77 in 10.0 mi West 8.1 mph - N/A   Unknown
1:15 AM 32.0 °F 24.2 °F 28.4 °F 87% 29.76 in 10.0 mi WSW 9.2 mph - N/A   Unknown
1:35 AM 32.0 °F 28.7 °F 28.4 °F 87% 29.75 in 10.0 mi West 3.5 mph - N/A   Unknown
1:55 AM 28.4 °F 23.3 °F 26.6 °F 93% 29.75 in 10.0 mi WNW 4.6 mph - N/A   Unknown
2:15 AM 28.4 °F 21.2 °F 26.6 °F 93% 29.75 in 10.0 mi WSW 6.9 mph - N/A   Unknown
2:35 AM 28.4 °F 22.2 °F 26.6 °F 93% 29.74 in 10.0 mi WSW 5.8 mph - N/A   Unknown
2:55 AM 28.4 °F 24.6 °F 26.6 °F 93% 29.74 in 10.0 mi West 3.5 mph - N/A   Unknown
3:15 AM 26.6 °F 21.2 °F 24.8 °F 93% 29.74 in 10.0 mi West 4.6 mph - N/A   Unknown
3:35 AM 24.8 °F 15.3 °F 23.0 °F 93% 29.73 in 10.0 mi West 9.2 mph - N/A   Unknown
3:55 AM 24.8 °F 15.3 °F 23.0 °F 93% 29.72 in 10.0 mi West 9.2 mph - N/A   Unknown
4:15 AM 23.0 °F 13.1 °F 21.2 °F 93% 29.71 in 10.0 mi West 9.2 mph - N/A   Unknown
4:35 AM 23.0 °F 15.8 °F 21.2 °F 93% 29.70 in 10.0 mi WSW 5.8 mph - N/A   Unknown
4:55 AM 17.6 °F 8.2 °F 15.8 °F 93% 29.71 in 10.0 mi SW 6.9 mph - N/A   Clear
5:15 AM 21.2 °F 13.6 °F 19.4 °F 93% 29.70 in 10.0 mi SW 5.8 mph - N/A   Unknown
5:35 AM 14.0 °F 3.9 °F 14.0 °F 100% 29.70 in 10.0 mi SSW 6.9 mph - N/A   Unknown
5:55 AM 15.8 °F 5.1 °F 15.8 °F 100% 29.69 in 10.0 mi SW 8.1 mph - N/A   Unknown
6:15 AM 14.0 °F 3.9 °F 14.0 °F 100% 29.68 in 10.0 mi South 6.9 mph - N/A   Unknown
6:35 AM 10.4 °F -1.5 °F 10.4 °F 100% 29.67 in 10.0 mi SSW 8.1 mph - N/A   Unknown
6:55 AM 10.4 °F -0.4 °F 10.4 °F 100% 29.66 in 10.0 mi SSW 6.9 mph - N/A   Unknown
7:15 AM 10.4 °F 0.8 °F 10.4 °F 100% 29.67 in 10.0 mi SSW 5.8 mph - N/A   Unknown
7:35 AM 12.2 °F 1.7 °F 12.2 °F 100% 29.66 in 10.0 mi South 6.9 mph - N/A   Overcast
7:55 AM 14.0 °F 6.5 °F 14.0 °F 100% 29.66 in 10.0 mi South 4.6 mph - N/A   Unknown
8:15 AM 15.8 °F 6.1 °F 15.8 °F 100% 29.66 in 10.0 mi SSE 6.9 mph - N/A   Unknown
8:35 AM 15.8 °F 3.4 °F 15.8 °F 100% 29.66 in 10.0 mi South 10.4 mph - N/A   Unknown
8:55 AM 17.6 °F 7.3 °F 17.6 °F 100% 29.65 in 10.0 mi South 8.1 mph - N/A   Unknown
9:15 AM 21.2 °F 11.7 °F 21.2 °F 100% 29.65 in 10.0 mi South 8.1 mph - N/A   Unknown
9:35 AM 23.0 °F 14.7 °F 23.0 °F 100% 29.65 in 10.0 mi South 6.9 mph - N/A   Unknown
9:55 AM 23.0 °F 13.1 °F 23.0 °F 100% 29.65 in 10.0 mi South 9.2 mph - N/A   Unknown
10:15 AM 23.0 °F 12.4 °F 23.0 °F 100% 29.64 in 1.8 mi South 10.4 mph - N/A Snow Light Snow
10:35 AM 23.0 °F 13.9 °F 23.0 °F 100% 29.63 in 0.8 mi SSE 8.1 mph - 0.12 in Snow Light Snow
10:55 AM 24.8 °F 14.0 °F 24.8 °F 100% 29.62 in 1.5 mi South 11.5 mph - 0.19 in Snow Light Snow
11:15 AM 24.8 °F 14.0 °F 24.8 °F 100% 29.60 in 0.8 mi South 11.5 mph - 0.07 in Snow Light Snow
11:35 AM 24.8 °F 14.6 °F 24.8 °F 100% 29.59 in 0.8 mi South 10.4 mph - 0.15 in Snow Light Snow
11:55 AM 24.8 °F 14.0 °F 24.8 °F 100% 29.59 in 0.8 mi SSW 11.5 mph - 0.23 in Snow Light Snow
12:15 PM 24.8 °F 13.4 °F 24.8 °F 100% 29.58 in 0.8 mi South 12.7 mph - 0.01 in Snow Light Snow
12:35 PM 26.6 °F 15.2 °F 26.6 °F 100% 29.57 in 1.2 mi SSW 13.8 mph - 0.02 in Snow Light Snow
12:55 PM 26.6 °F 15.7 °F 26.6 °F 100% 29.57 in 1.2 mi SSW 12.7 mph - 0.04 in Snow Light Snow
1:15 PM 26.6 °F 17.5 °F 26.6 °F 100% 29.56 in 1.0 mi SSW 9.2 mph - 0.02 in Snow Light Snow
1:35 PM 28.4 °F 19.7 °F 28.4 °F 100% 29.56 in 3.0 mi SSW 9.2 mph - 0.05 in Snow Light Snow
1:55 PM 28.4 °F 19.1 °F 28.4 °F 100% 29.55 in 9.0 mi SSW 10.4 mph - 0.05 in Snow Light Snow
2:15 PM 28.4 °F 21.2 °F 28.4 °F 100% 29.55 in 2.0 mi SSW 6.9 mph - N/A Snow Light Snow
2:35 PM 28.4 °F 21.2 °F 28.4 °F 100% 29.55 in 4.0 mi SW 6.9 mph - 0.01 in Snow Light Snow
2:55 PM 28.4 °F 20.4 °F 28.4 °F 100% 29.55 in 10.0 mi SW 8.1 mph - 0.01 in Snow Light Snow
3:15 PM 28.4 °F 23.3 °F 28.4 °F 100% 29.55 in 9.0 mi SW 4.6 mph - N/A   Unknown
3:35 PM 30.2 °F 26.7 °F 30.2 °F 100% 29.55 in 10.0 mi WSW 3.5 mph - N/A   Unknown
3:55 PM 30.2 °F - 30.2 °F 100% 29.55 in 9.0 mi Calm Calm - N/A Snow Light Snow
4:15 PM 30.2 °F 24.3 °F 30.2 °F 100% 29.56 in 10.0 mi NNW 5.8 mph - N/A   Unknown
4:35 PM 30.2 °F 20.2 °F 30.2 °F 100% 29.57 in 10.0 mi NNW 12.7 mph 18.4 mph N/A   Unknown
4:55 PM 28.4 °F 19.1 °F 28.4 °F 100% 29.58 in 10.0 mi NNW 10.4 mph - N/A   Unknown
5:15 PM 28.4 °F 19.1 °F 28.4 °F 100% 29.59 in 10.0 mi NNW 10.4 mph - N/A   Unknown
5:35 PM 28.4 °F 19.1 °F 28.4 °F 100% 29.60 in 10.0 mi NNW 10.4 mph - N/A   Unknown
5:55 PM 28.4 °F 18.5 °F 28.4 °F 100% 29.61 in 10.0 mi North 11.5 mph - N/A   Unknown
6:15 PM 28.4 °F 18.5 °F 28.4 °F 100% 29.62 in 7.0 mi North 11.5 mph - N/A Rain Light Freezing Rain
6:35 PM 28.4 °F 18.0 °F 28.4 °F 100% 29.64 in 5.0 mi NNW 12.7 mph - N/A Snow Light Snow
6:55 PM 28.4 °F 18.5 °F 28.4 °F 100% 29.65 in 6.0 mi NNW 11.5 mph - 0.01 in Snow Light Snow
7:15 PM 28.4 °F 18.5 °F 28.4 °F 100% 29.66 in 10.0 mi NNW 11.5 mph - N/A Snow Light Snow
7:35 PM 28.4 °F 18.0 °F 28.4 °F 100% 29.68 in 9.0 mi NNW 12.7 mph - N/A Snow Light Snow
7:55 PM 28.4 °F 17.5 °F 28.4 °F 100% 29.68 in 8.0 mi North 13.8 mph - 0.01 in Snow Light Snow
8:15 PM 26.6 °F 15.2 °F 26.6 °F 100% 29.70 in 5.0 mi NNW 13.8 mph - N/A Snow Light Snow
8:35 PM 26.6 °F 17.5 °F 26.6 °F 100% 29.70 in 3.0 mi NNW 9.2 mph - 0.03 in Snow Light Snow
8:55 PM 26.6 °F 15.7 °F 26.6 °F 100% 29.71 in 4.0 mi NNW 12.7 mph - 0.05 in Snow Light Snow
9:15 PM 26.6 °F 18.2 °F 26.6 °F 100% 29.72 in 9.0 mi North 8.1 mph - N/A   Unknown
9:35 PM 26.6 °F 18.2 °F 26.6 °F 100% 29.73 in 10.0 mi NNW 8.1 mph - N/A   Unknown
9:55 PM 26.6 °F 17.5 °F 26.6 °F 100% 29.74 in 10.0 mi NNW 9.2 mph - N/A   Unknown
10:15 PM 26.6 °F 16.8 °F 26.6 °F 100% 29.75 in 10.0 mi NW 10.4 mph - N/A   Unknown
10:35 PM 26.6 °F 17.5 °F 26.6 °F 100% 29.75 in 10.0 mi NNW 9.2 mph - N/A   Unknown
10:55 PM 26.6 °F 16.2 °F 26.6 °F 100% 29.76 in 10.0 mi NNW 11.5 mph - N/A   Unknown
11:15 PM 26.6 °F 16.8 °F 26.6 °F 100% 29.77 in 10.0 mi NNW 10.4 mph - N/A   Unknown
11:35 PM 26.6 °F 18.2 °F 26.6 °F 100% 29.77 in 10.0 mi NNW 8.1 mph - N/A   Unknown
11:55 PM 24.8 °F 16.9 °F 24.8 °F 100% 29.78 in 10.0 mi NNW 6.9 mph - N/A   Unknown